Wind_Speed
12 12 13 14 14 14 15 16 17 17 17 17 17 18 19 19 19 20 20 21 21 21 22 22 22 23 24 24 24 25 25 26 26 27 27 28 29 29
14 14 15 16 16 16 16 17 18 18 18 18 19 19 20 21 22 22 22 22 22 22 23 23 24 25 26 26 27 27 28 29 29 29 30 31 31 32
14 14 15 16 17 17 17 18 19 19 20 20 21 22 22 23 24 24 24 24 24 24 25 26 26 27 28 28 28 29 30 31 31 32 33 33 34 34
14 14 15 16 17 17 18 19 19 20 21 21 21 22 23 24 24 24 25 26 26 27 27 28 29 29 29 30 31 32 32 32 33 34 35 35 35 36
15 15 16 17 18 18 18 19 19 20 21 22 23 23 24 24 25 26 27 28 29 29 30 31 32 32 32 32 32 33 33 34 35 35 36 37 39 39
17 17 18 19 19 19 19 20 21 22 23 25 25 25 26 26 27 27 28 29 29 29 31 32 32 33 33 33 34 35 35 36 36 37 37 38 39 39
18 19 19 20 20 21 22 22 23 24 25 25 26 26 27 27 28 28 29 29 30 31 31 32 33 33 33 34 35 36 37 38 38 39 39 40 40 41
20 21 21 21 22 23 24 24 25 25 26 27 28 28 28 28 28 30 31 32 32 32 32 33 33 35 35 36 37 38 39 40 40 40 41 41 42 42
22 22 23 23 23 24 24 25 26 26 27 28 29 29 29 29 30 31 32 33 33 33 34 35 35 36 37 38 38 39 40 41 42 43 43 43 43 44
23 23 23 24 24 25 25 26 27 28 28 29 29 30 31 31 32 32 33 33 34 35 36 37 37 38 39 39 40 41 42 43 44 45 46 45 45 46
23 23 24 24 25 25 26 27 27 28 29 30 30 31 31 32 32 33 34 35 35 36 36 37 38 39 40 41 41 42 43 43 44 44 45 45 45 45
23 24 25 25 26 26 26 27 28 29 30 30 31 31 32 32 33 33 34 35 36 36 37 38 39 39 40 40 41 42 43 44 44 43 44 44 44 44
24 25 26 26 27 28 28 29 30 30 30 31 31 32 33 33 34 35 36 37 37 38 38 38 39 40 40 41 41 42 42 42 42 42 43 42 43 43
25 26 26 27 28 29 29 30 30 31 31 31 32 32 33 34 35 36 37 37 38 38 38 39 40 40 41 41 41 41 41 41 41 41 41 41 41 41
26 26 27 28 28 29 30 30 31 32 32 32 33 33 34 35 36 36 37 37 38 38 39 40 40 41 41 41 40 40 40 40 39 39 39 39 38 38
26 27 28 28 29 30 30 30 31 31 32 33 33 34 35 35 35 36 37 38 38 38 39 39 39 40 39 39 39 39 39 38 38 38 38 38 38 38
27 28 28 29 30 30 31 31 31 32 33 34 34 35 35 36 37 37 38 37 38 38 38 38 38 38 38 37 37 37 37 37 37 37 37 37 38 38
27 28 28 29 30 30 31 31 32 33 34 34 34 35 36 36 37 37 37 37 38 38 38 37 37 37 36 36 36 36 36 36 36 37 37 37 37 37
28 28 29 30 30 31 32 32 33 34 34 35 35 36 36 37 37 37 37 37 37 37 37 37 36 36 36 35 35 35 36 35 35 36 36 36 35 35
29 29 30 31 31 32 33 33 34 34 35 35 36 36 37 37 37 37 36 36 36 36 36 36 36 35 35 35 35 35 35 35 35 34 34 34 33 33
30 31 31 32 32 33 33 33 34 34 35 36 36 36 36 36 36 36 36 36 36 35 35 35 34 35 34 35 35 35 35 34 34 34 33 32 31 31
31 32 32 32 33 33 33 33 34 35 35 35 35 35 35 35 36 36 35 35 35 35 35 34 34 34 34 34 34 34 34 33 33 32 31 31 30 30
31 32 32 31 32 33 33 33 34 34 34 34 34 34 34 34 35 35 35 35 36 35 35 35 35 35 34 34 34 33 33 32 32 32 30 30 29 29
Wind_Direction
282 282 285 287 290 291 289 289 291 294 296 295 293 291 289 289 289 289 288 286 284 283 281 278 278 278 278 278 277 276 275 276 277 276 276 275 274 273
284 282 283 287 288 288 289 290 293 294 293 292 293 292 291 289 289 290 291 289 285 284 283 281 280 279 279 278 278 277 278 278 276 276 275 275 273 272
289 285 284 286 287 288 289 290 293 294 292 291 292 292 293 292 292 290 291 290 286 285 285 284 284 285 283 281 280 279 280 280 280 278 277 277 275 274
292 288 286 288 288 290 292 293 295 297 297 296 296 295 293 293 293 292 290 290 289 287 285 285 284 285 284 282 281 281 281 281 281 280 278 277 276 276
297 295 292 291 291 293 295 295 296 298 299 300 299 298 297 297 293 291 290 290 289 288 287 286 284 284 283 282 283 283 282 283 283 281 280 280 278 277
298 298 297 296 297 299 298 298 298 298 297 299 298 297 298 297 296 295 293 292 291 289 287 286 284 285 285 284 284 284 284 284 284 284 282 283 282 280
297 297 297 297 296 297 297 298 298 298 299 300 299 299 298 297 296 296 296 294 293 293 291 290 288 287 286 285 285 285 285 284 284 284 283 284 283 282
295 296 295 295 295 295 296 297 298 298 298 299 299 299 299 298 298 298 297 295 294 293 293 293 291 290 288 287 287 286 285 284 285 285 285 284 283 283
295 296 297 296 296 297 297 298 299 298 298 299 299 299 299 299 299 298 297 297 296 295 295 293 291 290 289 288 287 287 287 286 285 285 285 284 283 282
299 299 300 299 299 300 300 300 300 300 300 300 300 301 301 300 299 298 297 297 297 296 295 294 293 292 291 290 289 289 288 287 286 285 284 284 282 281
302 302 303 302 302 301 302 303 302 302 302 302 301 301 301 300 300 300 300 299 298 297 296 295 295 295 294 293 292 291 290 290 289 287 286 284 283 281
304 304 303 303 304 303 303 304 303 303 302 303 303 303 303 303 303 303 302 301 301 300 299 299 298 297 297 295 294 294 292 291 290 289 288 286 284 282
303 303 303 304 304 304 304 305 305 305 304 304 304 303 303 303 302 302 302 302 302 302 301 301 300 299 298 297 296 295 294 292 291 290 289 287 286 285
303 304 304 305 305 305 306 307 308 307 305 305 304 304 303 303 303 303 304 304 303 303 303 302 302 301 300 299 298 297 295 294 293 293 292 290 288 286
303 305 306 306 306 307 308 309 309 309 309 307 305 305 305 305 305 306 306 305 305 304 304 304 304 303 301 300 299 298 297 295 295 294 293 292 291 288
305 305 306 306 307 309 309 309 309 310 310 310 308 307 306 307 307 308 308 307 307 306 306 306 306 305 303 302 301 299 298 297 296 295 294 293 292 290
306 307 307 307 308 309 309 309 310 311 311 311 311 310 309 308 309 309 309 308 308 308 309 309 308 307 306 305 304 303 301 299 298 296 295 294 293 292
308 308 308 310 310 311 310 310 310 310 310 311 311 312 311 310 310 310 310 309 310 310 310 310 310 309 308 307 306 305 303 302 300 298 295 294 294 293
309 310 311 311 312 312 312 311 310 310 311 311 311 313 313 313 313 312 311 311 311 311 311 311 311 310 309 309 308 306 305 303 302 300 298 296 295 293
310 311 311 311 311 312 312 312 311 310 311 312 313 313 314 314 314 313 313 313 312 312 312 312 312 311 311 310 309 308 306 305 303 302 301 299 296 294
309 310 311 311 311 312 312 312 312 312 313 314 315 315 315 315 315 315 315 314 314 313 313 313 313 312 311 311 310 310 308 307 305 304 303 301 299 296
308 309 309 310 311 311 312 312 313 314 315 316 316 316 316 316 315 316 317 316 315 314 314 313 313 313 312 312 311 311 310 308 307 306 305 304 302 300
310 311 311 311 311 312 312 313 314 315 316 316 316 317 317 316 316 317 318 318 317 316 314 313 313 313 312 312 312 313 312 310 309 308 306 305 304 303
Height
5887 5886 5886 5885 5884 5883 5882 5880 5880 5878 5876 5874 5873 5872 5870 5869 5867 5866 5864 5863 5861 5860 5858 5857 5856 5855 5853 5852 5851 5850 5849 5848 5847 5846 5845 5844 5844 5843
5884 5883 5882 5881 5881 5879 5878 5877 5875 5874 5872 5871 5869 5867 5865 5864 5862 5860 5859 5857 5856 5854 5853 5851 5850 5848 5847 5845 5844 5843 5842 5841 5840 5838 5837 5836 5835 5835
5881 5880 5879 5878 5877 5876 5874 5873 5871 5869 5868 5867 5865 5862 5860 5858 5857 5855 5853 5851 5850 5848 5846 5845 5843 5841 5840 5838 5837 5835 5834 5832 5831 5830 5828 5827 5826 5825
5877 5876 5875 5874 5873 5872 5870 5868 5867 5865 5863 5861 5859 5857 5855 5853 5851 5849 5847 5845 5843 5841 5839 5837 5836 5834 5832 5831 5829 5827 5825 5824 5822 5820 5819 5818 5816 5815
5874 5873 5871 5870 5869 5867 5865 5864 5862 5860 5858 5856 5854 5851 5849 5847 5845 5843 5840 5838 5836 5834 5832 5830 5828 5826 5824 5822 5820 5818 5816 5815 5812 5810 5809 5807 5806 5804
5871 5870 5868 5866 5864 5862 5861 5859 5857 5855 5853 5850 5848 5845 5843 5840 5838 5836 5833 5831 5828 5826 5824 5822 5819 5817 5815 5813 5811 5809 5807 5805 5802 5800 5798 5796 5794 5793
5868 5866 5864 5862 5860 5858 5856 5854 5852 5850 5847 5844 5842 5839 5837 5834 5831 5828 5826 5823 5820 5818 5816 5813 5811 5808 5806 5803 5801 5799 5797 5794 5792 5789 5787 5785 5783 5781
5863 5861 5859 5857 5855 5853 5851 5848 5846 5844 5841 5838 5836 5833 5830 5827 5824 5821 5818 5815 5812 5810 5806 5804 5801 5798 5796 5793 5791 5788 5786 5783 5780 5778 5775 5773 5771 5769
5858 5856 5854 5851 5849 5847 5845 5842 5840 5837 5835 5832 5829 5825 5823 5820 5817 5813 5810 5807 5803 5800 5797 5794 5791 5788 5785 5782 5779 5776 5774 5771 5768 5765 5762 5760 5758 5755
5853 5850 5848 5845 5843 5841 5838 5836 5833 5830 5827 5825 5822 5818 5815 5812 5808 5805 5802 5798 5795 5791 5787 5784 5780 5777 5774 5771 5768 5764 5761 5758 5755 5752 5749 5746 5744 5741
5847 5844 5842 5840 5837 5835 5832 5829 5826 5823 5820 5816 5813 5810 5806 5803 5800 5796 5792 5789 5785 5781 5777 5774 5770 5766 5762 5759 5755 5752 5748 5745 5741 5738 5734 5731 5729 5726
5841 5839 5836 5834 5831 5828 5825 5822 5819 5816 5812 5809 5805 5802 5798 5794 5791 5787 5783 5779 5775 5771 5767 5763 5759 5755 5751 5746 5742 5738 5735 5731 5727 5724 5721 5717 5714 5712
5835 5833 5830 5827 5824 5821 5818 5815 5811 5808 5804 5801 5797 5793 5790 5786 5782 5778 5774 5770 5765 5761 5757 5752 5748 5743 5739 5735 5730 5725 5721 5717 5714 5710 5707 5704 5700 5697
5829 5826 5823 5821 5817 5814 5811 5807 5804 5800 5796 5792 5788 5785 5781 5777 5772 5768 5764 5759 5755 5750 5746 5741 5736 5731 5727 5722 5718 5713 5708 5704 5700 5697 5693 5690 5687 5684
5823 5820 5817 5814 5810 5807 5803 5800 5796 5792 5788 5784 5780 5776 5771 5767 5762 5758 5753 5748 5744 5739 5734 5729 5724 5719 5714 5710 5705 5701 5696 5692 5688 5684 5681 5677 5674 5671
5816 5813 5810 5807 5803 5800 5796 5792 5788 5784 5780 5775 5771 5766 5762 5757 5753 5748 5743 5738 5733 5728 5723 5718 5713 5708 5703 5698 5693 5689 5684 5680 5677 5673 5669 5665 5661 5658
5810 5806 5803 5799 5796 5792 5788 5784 5780 5776 5771 5767 5762 5757 5753 5748 5743 5738 5733 5728 5723 5718 5712 5707 5702 5696 5691 5687 5682 5678 5673 5669 5665 5661 5657 5654 5650 5646
5803 5800 5796 5792 5788 5784 5780 5776 5772 5767 5763 5758 5753 5748 5743 5738 5733 5728 5723 5717 5712 5707 5702 5697 5691 5686 5681 5676 5672 5667 5662 5658 5654 5650 5646 5643 5639 5635
5797 5793 5789 5785 5781 5777 5773 5768 5764 5759 5754 5749 5744 5739 5734 5729 5723 5718 5713 5707 5702 5697 5692 5686 5681 5676 5672 5667 5662 5657 5652 5648 5644 5640 5635 5631 5628 5624
5789 5785 5781 5777 5773 5769 5765 5760 5755 5751 5746 5740 5735 5730 5725 5719 5714 5708 5703 5697 5692 5687 5682 5677 5672 5667 5662 5657 5653 5648 5643 5638 5634 5629 5625 5621 5617 5614
5782 5778 5774 5770 5766 5761 5757 5752 5747 5742 5737 5732 5726 5721 5715 5710 5704 5699 5693 5688 5683 5677 5672 5668 5663 5658 5653 5648 5643 5638 5633 5628 5624 5619 5615 5611 5607 5604
5775 5771 5766 5762 5758 5753 5749 5744 5739 5734 5729 5723 5718 5712 5707 5701 5696 5690 5685 5679 5673 5668 5663 5658 5654 5649 5644 5639 5634 5629 5624 5619 5614 5610 5606 5602 5598 5594
5767 5763 5758 5754 5750 5745 5741 5736 5731 5726 5720 5715 5710 5704 5699 5693 5688 5682 5676 5670 5664 5659 5654 5649 5644 5639 5634 5629 5625 5620 5615 5610 5606 5601 5597 5593 5589 5585